| Date | Time | Temp. (oF) | Dew Point (oF) | Rel. Hum. (%) | Press. (in.) | Wind Dir. | Wind Speed (mph) | Hourly Rainfall (in.) |
|
|---|---|---|---|---|---|---|---|---|---|
| 1 | 10/27 | 00:00 | 43 | 39 | 86 | 30.10 | WSW | 2 | 0.00 |
| 2 | 10/26 | 23:00 | 44 | 39 | 84 | 30.08 | W | 5 | 0.00 |
| 3 | 10/26 | 22:00 | 45 | 41 | 86 | 30.07 | WSW | 3 | 0.00 |
| 4 | 10/26 | 21:00 | 46 | 41 | 84 | 30.05 | W | 4 | 0.00 |
| 5 | 10/26 | 20:00 | 46 | 40 | 81 | 30.02 | WNW | 2 | 0.00 |
| 6 | 10/26 | 19:00 | 48 | 40 | 75 | 29.98 | W | 1 | 0.00 |
| 7 | 10/26 | 18:00 | 50 | 40 | 71 | 29.96 | NW | 2 | 0.00 |
| 8 | 10/26 | 17:00 | 52 | 40 | 64 | 29.93 | NW | 5 | 0.00 |
| 9 | 10/26 | 16:00 | 52 | 40 | 66 | 29.91 | WNW | 6 | 0.00 |
| 10 | 10/26 | 15:00 | 52 | 40 | 65 | 29.90 | WSW | 7 | 0.00 |
| 11 | 10/26 | 14:00 | 51 | 39 | 65 | 29.90 | NNW | 10 | 0.00 |
| 12 | 10/26 | 13:00 | 51 | 40 | 67 | 29.89 | NW | 10 | 0.00 |
| 13 | 10/26 | 12:00 | 50 | 39 | 68 | 29.90 | WNW | 9 | 0.00 |
| 14 | 10/26 | 11:00 | 49 | 41 | 75 | 29.88 | NW | 11 | 0.00 |
| 15 | 10/26 | 10:00 | 46 | 40 | 80 | 29.85 | W | 14 | 0.00 |
| 16 | 10/26 | 09:00 | 43 | 39 | 87 | 29.82 | W | 9 | 0.00 |
| 17 | 10/26 | 08:00 | 40 | 37 | 92 | 29.78 | W | 9 | 0.00 |
| 18 | 10/26 | 07:00 | 40 | 37 | 91 | 29.75 | NW | 3 | 0.00 |
| 19 | 10/26 | 06:00 | 40 | 38 | 95 | 29.72 | NNW | 4 | 0.00 |
| 20 | 10/26 | 05:00 | 39 | 38 | 99 | 29.70 | W | 5 | 0.00 |
| 21 | 10/26 | 04:00 | 39 | 39 | 100 | 29.66 | WNW | 6 | 0.01 |
| 22 | 10/26 | 03:00 | 39 | 39 | 100 | 29.64 | W | 4 | 0.00 |
| 23 | 10/26 | 02:00 | 39 | 39 | 100 | 29.62 | WSW | 8 | 0.00 |
| 24 | 10/26 | 01:00 | 40 | 40 | 100 | 29.60 | WNW | 2 | 0.00 |